Weather History for Freeport, IL

Change the Weather History Date:

Tuesday, August 27, 2013

  Actual Average Record
Temperature  
Mean Temperature 84 °F -  
Max Temperature 94 °F 81 °F 94 °F (2013)
Min Temperature 74 °F 61 °F 50 °F (2008)
Cooling Degree Days 19    
Growing Degree Days 34 (Base 50)    
Moisture  
Dew Point 73 °F    
Average Humidity 72    
Maximum Humidity 88    
Minimum Humidity 50    
Precipitation  
Precipitation 0.00 in - - ()
Sea Level Pressure  
Sea Level Pressure 29.95 in    
Wind  
Wind Speed 11 mph (SW)    
Max Wind Speed 20 mph    
Max Gust Speed 23 mph    
Visibility 10 miles    
Events      
Averages and records for this station are not official NWS values.
T = Trace of Precipitation, MM = Missing Value Source: NWS Daily Summary

Daily Weather History Graph

Daily Weather History Graph

Search for Another Location

Airport:

Trip Planner

Search our weather history database for the weather conditions in past years. The results will help you decide how hot, cold, wet, or windy it might be!

Date:

Astronomy

Aug. 27, 2013 Rise Set
Actual Time 6:18 AM CDT 7:40 PM CDT
Civil Twilight 5:49 AM CDT 8:09 PM CDT
Nautical Twilight 5:14 AM CDT 8:44 PM CDT
Astronomical Twilight 4:37 AM CDT 9:21 PM CDT
Moon 11:24 PM CDT (8/27) 1:25 PM CDT (8/27)
Length of Visible Light 14h 19m
Length of Day
13h 21m
Waning Gibbous, 57% of the Moon is Illuminated
Aug 27
Waning Gibbous
Aug 28
Last Quarter
Sep 5
New
Sep 12
First Quarter
Sep 19
Full

Hourly Weather History & Observations

Time (CDT) Temp. Heat Index Dew Point Humidity Pressure Visibility Wind Dir Wind Speed Gust Speed Precip Events Conditions
12:15 AM 79.3 °F - 74.3 °F 84% 30.03 in 10.0 mi SSW 11.5 mph - N/A   Clear
12:35 AM 77.0 °F - 72.1 °F 85% 30.03 in 10.0 mi SSW 10.4 mph - N/A   Clear
12:55 AM 77.0 °F - 72.5 °F 86% 30.02 in 10.0 mi SSW 10.4 mph - N/A   Clear
1:15 AM 77.0 °F - 72.1 °F 85% 30.02 in 10.0 mi SSW 9.2 mph - N/A   Clear
1:35 AM 77.0 °F - 72.3 °F 85% 30.02 in 10.0 mi SSW 8.1 mph - N/A   Clear
1:55 AM 77.0 °F - 72.1 °F 85% 30.01 in 10.0 mi SSW 9.2 mph - N/A   Clear
2:15 AM 78.1 °F - 72.9 °F 84% 30.01 in 10.0 mi SSW 11.5 mph - N/A   Clear
2:35 AM 77.0 °F - 72.0 °F 84% 29.99 in 10.0 mi SW 12.7 mph - N/A   Clear
2:55 AM 76.8 °F - 72.0 °F 85% 29.99 in 10.0 mi SW 9.2 mph - N/A   Clear
3:15 AM 75.9 °F - 71.2 °F 85% 30.00 in 10.0 mi SW 9.2 mph - N/A   Clear
3:35 AM 74.3 °F - 70.2 °F 87% 29.99 in 10.0 mi SW 11.5 mph - N/A   Clear
3:55 AM 74.3 °F - 70.2 °F 87% 29.99 in 10.0 mi SW 9.2 mph - N/A   Clear
4:15 AM 74.3 °F - 70.0 °F 86% 29.99 in 10.0 mi SW 9.2 mph - N/A   Clear
4:35 AM 74.3 °F - 70.7 °F 88% 29.99 in 10.0 mi SW 8.1 mph - N/A   Clear
4:55 AM 74.3 °F - 70.7 °F 88% 29.99 in 10.0 mi SW 6.9 mph - N/A   Clear
5:15 AM 74.3 °F - 70.7 °F 88% 30.00 in 10.0 mi SW 6.9 mph - N/A   Clear
5:35 AM 74.3 °F - 70.3 °F 87% 30.00 in 10.0 mi WSW 8.1 mph - N/A   Clear
5:55 AM 74.3 °F - 70.7 °F 88% 30.01 in 10.0 mi SW 6.9 mph - N/A   Clear
6:15 AM 74.3 °F - 70.7 °F 88% 30.01 in 10.0 mi WSW 6.9 mph - N/A   Clear
6:35 AM 74.3 °F - 70.3 °F 87% 30.01 in 10.0 mi WSW 6.9 mph - N/A   Clear
6:55 AM 74.3 °F - 70.7 °F 88% 30.01 in 10.0 mi SW 8.1 mph - N/A   Clear
7:15 AM 74.3 °F - 70.2 °F 87% 30.01 in 10.0 mi WSW 9.2 mph - N/A   Clear
7:35 AM 74.8 °F - 70.3 °F 86% 30.01 in 10.0 mi SW 10.4 mph - N/A   Clear
7:55 AM 77.4 °F - 72.1 °F 84% 30.01 in 10.0 mi SW 10.4 mph - N/A   Clear
8:15 AM 79.3 °F - 73.4 °F 82% 30.00 in 10.0 mi SW 11.5 mph - N/A   Clear
8:35 AM 79.3 °F - 72.5 °F 79% 29.99 in 10.0 mi SW 11.5 mph 17.3 mph N/A   Clear
8:55 AM 81.9 °F 87.7 °F 73.9 °F 77% 29.99 in 10.0 mi SW 12.7 mph 17.3 mph N/A   Clear
9:15 AM 81.9 °F 87.0 °F 73.0 °F 74% 29.98 in 10.0 mi WSW 13.8 mph 20.7 mph N/A   Clear
9:35 AM 84.4 °F 92.0 °F 74.5 °F 72% 29.98 in 10.0 mi WSW 11.5 mph - N/A   Clear
9:55 AM 84.0 °F 91.5 °F 74.5 °F 73% 29.98 in 10.0 mi SW 12.7 mph 17.3 mph N/A   Clear
10:15 AM 84.4 °F 91.7 °F 74.1 °F 71% 29.98 in 10.0 mi SW 11.5 mph - N/A   Clear
10:35 AM 85.6 °F 93.8 °F 74.3 °F 69% 29.98 in 10.0 mi WSW 9.2 mph - N/A   Clear
10:55 AM 86.0 °F 93.4 °F 73.6 °F 66% 29.97 in 10.0 mi SW 9.2 mph - N/A   Clear
11:15 AM 87.3 °F 95.8 °F 74.3 °F 65% 29.97 in 10.0 mi SW 13.8 mph - N/A   Clear
11:35 AM 87.8 °F 96.6 °F 74.1 °F 64% 29.97 in 10.0 mi SW 11.5 mph 17.3 mph N/A   Clear
11:55 AM 88.2 °F 97.4 °F 74.7 °F 64% 29.96 in 10.0 mi SW 13.8 mph 18.4 mph N/A   Clear
12:15 PM 89.6 °F 99.8 °F 74.8 °F 62% 29.96 in 10.0 mi SSW 15.0 mph 18.4 mph N/A   Clear
12:35 PM 91.2 °F 102.7 °F 75.6 °F 60% 29.95 in 10.0 mi SSW 16.1 mph 21.9 mph N/A   Clear
12:55 PM 92.1 °F 103.6 °F 75.4 °F 58% 29.94 in 10.0 mi SW 16.1 mph - N/A   Clear
1:15 PM 92.3 °F 103.4 °F 75.0 °F 57% 29.94 in 10.0 mi SW 17.3 mph - N/A   Clear
1:35 PM 93.0 °F 104.6 °F 75.4 °F 56% 29.93 in 10.0 mi SW 15.0 mph - N/A   Clear
1:55 PM 94.6 °F 107.2 °F 75.7 °F 54% 29.93 in 10.0 mi WSW 11.5 mph 21.9 mph N/A   Clear
2:15 PM 94.6 °F 108.0 °F 76.3 °F 55% 29.92 in 10.0 mi SW 15.0 mph - N/A   Clear
2:35 PM 94.6 °F 106.5 °F 75.2 °F 53% 29.92 in 10.0 mi SW 11.5 mph - N/A   Clear
2:55 PM 94.6 °F 104.4 °F 73.6 °F 50% 29.91 in 10.0 mi SW 16.1 mph - N/A   Clear
3:15 PM 94.6 °F 105.8 °F 74.7 °F 52% 29.90 in 10.0 mi SW 16.1 mph 21.9 mph N/A   Clear
3:35 PM 94.6 °F 105.8 °F 74.5 °F 52% 29.89 in 10.0 mi SSW 16.1 mph 23.0 mph N/A   Clear
3:55 PM 94.6 °F 105.1 °F 74.1 °F 51% 29.89 in 10.0 mi SW 16.1 mph 23.0 mph N/A   Clear
4:15 PM 94.6 °F 105.1 °F 73.9 °F 51% 29.89 in 10.0 mi SW 19.6 mph - N/A   Clear
4:35 PM 94.6 °F 105.8 °F 74.7 °F 52% 29.88 in 10.0 mi SW 13.8 mph 18.4 mph N/A   Clear
4:55 PM 94.6 °F 105.8 °F 74.5 °F 52% 29.89 in 10.0 mi SW 11.5 mph 21.9 mph N/A   Clear
5:15 PM 94.6 °F 106.5 °F 75.2 °F 53% 29.89 in 10.0 mi SW 11.5 mph 18.4 mph N/A   Clear
5:35 PM 94.6 °F 107.2 °F 75.7 °F 54% 29.89 in 10.0 mi SW 10.4 mph 16.1 mph N/A   Clear
5:55 PM 94.6 °F 106.5 °F 75.2 °F 53% 29.89 in 10.0 mi SW 12.7 mph 21.9 mph N/A   Clear
6:15 PM 92.3 °F 102.8 °F 74.5 °F 56% 29.88 in 10.0 mi SW 11.5 mph 16.1 mph N/A   Clear
6:35 PM 91.8 °F 102.1 °F 74.7 °F 57% 29.88 in 10.0 mi SW 11.5 mph 18.4 mph N/A   Clear
6:55 PM 88.7 °F 96.2 °F 72.9 °F 59% 29.88 in 10.0 mi SW 9.2 mph - N/A   Clear
7:15 PM 86.9 °F 94.5 °F 73.2 °F 64% 29.89 in 10.0 mi SW 8.1 mph - N/A   Clear
7:35 PM 84.4 °F 91.3 °F 73.6 °F 70% 29.89 in 10.0 mi SSW 6.9 mph - N/A   Clear
7:55 PM 84.4 °F 92.0 °F 74.7 °F 72% 29.89 in 10.0 mi SSW 6.9 mph - N/A   Clear
8:15 PM 81.9 °F 87.5 °F 73.8 °F 76% 29.89 in 10.0 mi SSW 6.9 mph - N/A   Clear
8:35 PM 82.9 °F 89.4 °F 73.9 °F 74% 29.90 in 10.0 mi SSW 8.1 mph - N/A   Clear
8:55 PM 81.9 °F 87.3 °F 73.2 °F 75% 29.90 in 10.0 mi SW 8.1 mph - N/A   Clear
9:15 PM 81.9 °F 87.0 °F 73.0 °F 74% 29.91 in 10.0 mi SW 5.8 mph - N/A   Clear
9:35 PM 81.9 °F 88.0 °F 74.3 °F 78% 29.91 in 10.0 mi SW 5.8 mph - N/A   Clear
9:55 PM 79.3 °F - 72.7 °F 80% 29.91 in 10.0 mi SW 5.8 mph - N/A   Clear
10:15 PM 79.3 °F - 73.8 °F 83% 29.92 in 10.0 mi SW 6.9 mph - N/A   Clear
10:35 PM 79.3 °F - 73.4 °F 82% 29.92 in 10.0 mi SW 6.9 mph - N/A   Clear
10:55 PM 79.3 °F - 73.4 °F 82% 29.92 in 10.0 mi SW 9.2 mph - N/A   Clear
11:15 PM 79.3 °F - 72.9 °F 80% 29.91 in 10.0 mi SW 8.1 mph - N/A   Clear
11:35 PM 79.3 °F - 72.0 °F 78% 29.91 in 10.0 mi SW 9.2 mph - N/A   Scattered Clouds
11:55 PM 79.5 °F - 70.9 °F 75% 29.91 in 10.0 mi SW 9.2 mph - N/A   Mostly Cloudy